Printer-friendly version

IAU Minor Planet Center

Minor Planet Center

(84028) 2002 PN44

Orbital Elements

The following orbital elements are taken from MPO 60077
 (84028) 2002 PN44
Epoch 2007 Oct. 27.0 TT = JDT 2454400.5                 MPC
M  63.10101              (2000.0)            P               Q
n   0.21249204     Peri.  231.34147     +0.88071907     +0.46327375
a   2.7812559      Node   100.85960     -0.39739915     +0.83598371
e   0.2381764      Incl.    5.75893     -0.25769717     +0.29412358
P   4.64           H   15.4           G   0.15           U   1
From 76 observations at 4 oppositions, 1994-2004, mean residual 0".62.
An explanation of the orbital elements is available.

These orbital elements are also available in forms suitable for loading into a number of popular planetarium-type software programs.


Ephemeris

The following ephemeris is at intervals of five days. A daily ephemeris covering the same time interval is also available.

Personalized ephemerides for this (and other) objects may be generated using the Minor Planet & Comet Ephemeris Service.

Date    TT    R. A. (2000) Decl.     Delta      r     Elong.  Phase     V
2009 10 26    12 24.58   +02 12.0    4.193    3.350    28.1     8.0    21.7

2010 02 13    13 59.79   -04 50.7    2.665    3.200   114.3    16.3    20.9
2010 02 18    14 00.49   -04 43.5    2.592    3.192   119.1    15.7    20.8
2010 02 23    14 00.68   -04 33.4    2.521    3.183   124.1    14.9    20.8
2010 02 28    14 00.32   -04 20.5    2.454    3.175   129.2    14.0    20.7
2010 03 05    13 59.43   -04 04.9    2.391    3.166   134.4    12.9    20.6
2010 03 10    13 57.99   -03 46.8    2.333    3.157   139.8    11.7    20.5
2010 03 15    13 56.01   -03 26.4    2.280    3.148   145.2    10.4    20.3
2010 03 20    13 53.52   -03 04.1    2.233    3.139   150.6     8.9    20.2
2010 03 25    13 50.57   -02 40.2    2.192    3.130   156.1     7.4    20.1
2010 03 30    13 47.21   -02 15.3    2.157    3.120   161.5     5.8    20.0
2010 04 04    13 43.51   -01 50.0    2.130    3.111   166.5     4.3    19.9
2010 04 09    13 39.55   -01 24.8    2.109    3.101   170.5     3.1    19.8
2010 04 14    13 35.43   -01 00.4    2.096    3.092   171.6     2.7    19.7
2010 04 19    13 31.24   -00 37.4    2.090    3.082   168.9     3.6    19.8
2010 04 24    13 27.10   -00 16.4    2.092    3.072   164.4     5.1    19.9
2010 04 29    13 23.11   +00 01.9    2.100    3.062   159.2     6.7    19.9
2010 05 04    13 19.35   +00 17.2    2.115    3.052   153.7     8.4    20.0
2010 05 09    13 15.91   +00 29.2    2.136    3.041   148.3    10.0    20.1
2010 05 14    13 12.87   +00 37.5    2.163    3.031   142.9    11.6    20.2
2010 05 19    13 10.28   +00 42.0    2.195    3.020   137.6    13.1    20.3
2010 05 24    13 08.19   +00 42.7    2.233    3.010   132.4    14.4    20.3
2010 05 29    13 06.62   +00 39.5    2.274    2.999   127.4    15.6    20.4
2010 06 03    13 05.58   +00 32.6    2.319    2.988   122.4    16.6    20.5
2010 06 08    13 05.09   +00 22.2    2.367    2.977   117.7    17.6    20.6
2010 06 13    13 05.13   +00 08.4    2.418    2.966   113.0    18.4    20.6
2010 06 18    13 05.71   -00 08.7    2.471    2.955   108.5    19.0    20.7
2010 06 23    13 06.80   -00 28.8    2.525    2.944   104.2    19.6    20.7
2010 06 28    13 08.39   -00 51.6    2.581    2.933   100.0    20.0    20.8
2010 07 03    13 10.44   -01 16.9    2.637    2.921    95.9    20.3    20.8
2010 07 08    13 12.94   -01 44.5    2.693    2.910    91.9    20.4    20.9
2010 07 13    13 15.87   -02 14.3    2.750    2.898    88.0    20.5    20.9
2010 07 18    13 19.20   -02 46.0    2.806    2.887    84.2    20.5    21.0
2010 07 23    13 22.92   -03 19.5    2.862    2.875    80.5    20.4    21.0
2010 07 28    13 26.99   -03 54.5    2.917    2.863    76.9    20.2    21.0
2010 08 02    13 31.40   -04 30.8    2.970    2.851    73.4    19.9    21.0

2010 09 21    14 30.97   -11 15.3    3.400    2.729    41.4    14.1    21.0
2010 09 26    14 38.22   -11 56.7    3.430    2.716    38.4    13.3    21.0
2010 10 01    14 45.68   -12 37.8    3.456    2.704    35.4    12.4    21.0

Valid HTML 4.01!